Volver al catálogo

SL-14 DEB

ActivoPO
NORAD 45336·DEBRIS·🇷🇺 Russia

Lanzado Aug 15, 1991 desde Plesetsk Cosmodrome

Loading…

Próximos Pases (próximas 24 horas)

TLE

ActualizadoSource: Space-Track

Época: Sep 14, 2026, 09:00 UTC

1 45336U 91056CA  26257.37506757  .00000781  00000-0  15901-2 0  9998
2 45336  82.5766  46.7008 0055008  94.1885 266.5535 13.31618427317655

Sigue SL-14 DEB en tiempo real con AllMySat

Download on the App Store